Simultaneous Nadir Overpasses (SNOs) Predictions

Prediction of SNOs between METOP-A and NOAA-19 Satellite Orbit:

Table of predicted SNOs for the next 14.0 days since TLE Epoch: 7/12/2019
Index Date (METOP-A) Time (METOP-A) Lat,Lon (METOP-A) SZA (METOP-A ) Date (NOAA-19) Time (NOAA-19) Lat,Lon (NOAA-19) SZA (NOAA-19 ) Distance(km) Time Diff (sec)
1 07/19/2019 01:30:23 -80.02, -8.32 120.69 07/19/2019 01:29:19 -80.01, -12.81 120.87 86.63 64
2 07/19/2019 02:21:11 79.78, 156.84 59.00 07/19/2019 02:20:09 79.81, 156.92 59.02 2.95 62
3 07/19/2019 03:11:52 -79.79, -35.78 120.99 07/19/2019 03:11:11 -79.79, -35.62 120.99 3.25 41
4 07/19/2019 04:02:32 79.80, 131.67 59.04 07/19/2019 04:02:09 79.79, 131.66 59.02 2.10 23
5 07/19/2019 04:53:14 -79.78, -61.23 120.99 07/19/2019 04:53:12 -79.79, -61.18 120.97 1.92 2
6 07/19/2019 05:43:54 79.79, 106.22 59.04 07/19/2019 05:44:10 79.79, 106.11 59.04 2.28 16
7 07/19/2019 06:34:35 -79.80, -86.40 120.95 07/19/2019 06:35:12 -79.77, -86.44 120.97 3.02 37
8 07/19/2019 07:25:16 79.78, 80.77 59.04 07/19/2019 07:26:10 79.77, 80.85 59.04 1.89 54




NCC Satellite Simultaneous Nadir Overpasses (SNOs) Prediction Service
